Weather History for Las Cruces, NM

Change the Weather History Date:

Tuesday, April 23, 2013

  Actual Average Record
Temperature  
Mean Temperature 70 °F -  
Max Temperature 84 °F 75 °F 89 °F (2006)
Min Temperature 55 °F 47 °F 24 °F (2009)
Cooling Degree Days 4    
Growing Degree Days 20 (Base 50)    
Moisture  
Dew Point 13 °F    
Average Humidity 12    
Maximum Humidity 27    
Minimum Humidity 7    
Precipitation  
Precipitation 0.00 in - - ()
Sea Level Pressure  
Sea Level Pressure 29.92 in    
Wind  
Wind Speed 13 mph (WSW)    
Max Wind Speed 36 mph    
Max Gust Speed 44 mph    
Visibility 10 miles    
Events      
Averages and records for this station are not official NWS values.
T = Trace of Precipitation, MM = Missing Value Source: NWS Daily Summary

Daily Weather History Graph

Daily Weather History Graph

Search for Another Location

Airport:

Trip Planner

Search our weather history database for the weather conditions in past years. The results will help you decide how hot, cold, wet, or windy it might be!

Date:

Astronomy

Apr. 23, 2013 Rise Set
Actual Time 6:29 AM MDT 7:43 PM MDT
Civil Twilight 6:03 AM MDT 8:08 PM MDT
Nautical Twilight 5:33 AM MDT 8:39 PM MDT
Astronomical Twilight 5:01 AM MDT 9:11 PM MDT
Moon 5:46 PM MDT (4/23) 4:51 AM MDT (4/23)
Length of Visible Light 14h 05m
Length of Day
13h 13m
Waxing Gibbous, 94% of the Moon is Illuminated
Apr 23
Waxing Gibbous
Apr 25
Full
May 2
Last Quarter
May 9
New
May 17
First Quarter

Hourly Weather History & Observations

Time (MDT) Temp. Dew Point Humidity Pressure Visibility Wind Dir Wind Speed Gust Speed Precip Events Conditions
12:15 AM 61.9 °F 7.3 °F 12% 29.91 in 10.0 mi WSW 5.8 mph - N/A   Clear
12:35 AM 59.2 °F 6.3 °F 12% 29.92 in 10.0 mi West 3.5 mph - N/A   Clear
1:15 AM 57.0 °F 6.6 °F 13% 29.92 in 10.0 mi WSW 9.2 mph - N/A   Clear
1:35 AM 57.7 °F 7.3 °F 13% 29.92 in 10.0 mi WSW 8.1 mph - N/A   Clear
1:55 AM 56.3 °F 7.3 °F 14% 29.92 in 10.0 mi WSW 9.2 mph - N/A   Clear
2:15 AM 57.4 °F 8.4 °F 14% 29.91 in 10.0 mi WSW 10.4 mph - N/A   Clear
2:35 AM 60.1 °F 9.5 °F 14% 29.91 in 10.0 mi WSW 12.7 mph - N/A   Clear
2:55 AM 59.2 °F 9.5 °F 14% 29.90 in 10.0 mi West 12.7 mph - N/A   Clear
3:15 AM 55.9 °F 8.4 °F 15% 29.90 in 10.0 mi WNW 10.4 mph - N/A   Clear
3:35 AM 56.3 °F 9.0 °F 15% 29.90 in 10.0 mi WNW 10.4 mph - N/A   Clear
4:15 AM 58.6 °F 10.0 °F 15% 29.90 in 10.0 mi WNW 15.0 mph - N/A   Clear
4:35 AM 60.6 °F 10.9 °F 14% 29.90 in 10.0 mi WNW 10.4 mph 20.7 mph N/A   Clear
4:55 AM 60.3 °F 11.3 °F 15% 29.90 in 10.0 mi West 11.5 mph 17.3 mph N/A   Clear
5:15 AM 59.7 °F 11.1 °F 15% 29.91 in 10.0 mi Calm Calm - N/A   Clear
5:35 AM 55.2 °F 9.3 °F 16% 29.91 in 10.0 mi SE 4.6 mph - N/A   Clear
5:55 AM 58.8 °F 11.3 °F 15% 29.92 in 10.0 mi SW 4.6 mph - N/A   Clear
6:15 AM 61.3 °F 11.7 °F 14% 29.92 in 10.0 mi West 12.7 mph - N/A   Clear
6:35 AM 58.6 °F 10.8 °F 15% 29.93 in 10.0 mi WSW 6.9 mph - N/A   Clear
6:55 AM 55.4 °F 9.9 °F 16% 29.95 in 10.0 mi SSW 6.9 mph - N/A   Clear
7:15 AM 55.6 °F 9.9 °F 16% 29.95 in 10.0 mi SSW 8.1 mph - N/A   Clear
7:35 AM 57.7 °F 10.4 °F 15% 29.96 in 10.0 mi SSW 11.5 mph - N/A   Clear
7:55 AM 59.9 °F 10.8 °F 14% 29.96 in 10.0 mi WSW 12.7 mph - N/A   Clear
8:15 AM 62.2 °F 10.9 °F 13% 29.97 in 10.0 mi SW 6.9 mph - N/A   Clear
8:35 AM 63.7 °F 11.1 °F 13% 29.98 in 10.0 mi SW 10.4 mph - N/A   Clear
8:55 AM 65.1 °F 11.1 °F 12% 29.98 in 10.0 mi SW 12.7 mph - N/A   Clear
9:15 AM 66.9 °F 11.8 °F 12% 29.97 in 10.0 mi SW 12.7 mph - N/A   Clear
9:35 AM 69.6 °F 13.1 °F 11% 29.97 in 10.0 mi WSW 15.0 mph 21.9 mph N/A   Clear
9:55 AM 71.4 °F 13.6 °F 11% 29.98 in 10.0 mi WSW 15.0 mph 23.0 mph N/A   Clear
10:15 AM 73.0 °F 14.4 °F 11% 29.97 in 10.0 mi WSW 17.3 mph 21.9 mph N/A   Clear
10:35 AM 74.3 °F 15.4 °F 11% 29.97 in 10.0 mi WSW 18.4 mph 24.2 mph N/A   Clear
10:55 AM 75.7 °F 15.8 °F 10% 29.96 in 10.0 mi WSW 24.2 mph 28.8 mph N/A   Clear
11:15 AM 75.9 °F 15.6 °F 10% 29.96 in 10.0 mi WSW 18.4 mph 29.9 mph N/A   Clear
11:35 AM 77.0 °F 15.4 °F 10% 29.96 in 10.0 mi WSW 17.3 mph 31.1 mph N/A   Clear
11:55 AM 77.4 °F 15.3 °F 10% 29.95 in 10.0 mi West 23.0 mph 28.8 mph N/A   Clear
12:15 PM 78.8 °F 14.7 °F 9% 29.94 in 10.0 mi WSW 23.0 mph 34.5 mph N/A   Clear
12:35 PM 79.2 °F 14.0 °F 9% 29.94 in 10.0 mi WSW 19.6 mph 33.4 mph N/A   Clear
12:55 PM 80.1 °F 14.9 °F 9% 29.92 in 10.0 mi SW 20.7 mph 35.7 mph N/A   Clear
1:15 PM 80.6 °F 14.2 °F 8% 29.91 in 10.0 mi West 25.3 mph 31.1 mph N/A   Clear
1:35 PM 81.1 °F 14.2 °F 8% 29.90 in 10.0 mi WSW 20.7 mph 25.3 mph N/A   Clear
1:55 PM 81.7 °F 13.8 °F 8% 29.89 in 10.0 mi West 24.2 mph 35.7 mph N/A   Clear
2:15 PM 82.4 °F 13.1 °F 7% 29.88 in 10.0 mi WSW 16.1 mph 36.8 mph N/A   Clear
2:35 PM 83.5 °F 13.5 °F 7% 29.87 in 10.0 mi WSW 17.3 mph 35.7 mph N/A   Clear
2:55 PM 82.6 °F 13.1 °F 7% 29.87 in 10.0 mi WSW 16.1 mph 35.7 mph N/A   Clear
3:15 PM 83.5 °F 12.0 °F 7% 29.86 in 10.0 mi West 28.8 mph 41.4 mph N/A   Clear
3:35 PM 84.0 °F 12.9 °F 7% 29.86 in 10.0 mi West 27.6 mph 36.8 mph N/A   Clear
3:55 PM 83.7 °F 13.1 °F 7% 29.85 in 10.0 mi West 26.5 mph 41.4 mph N/A   Clear
4:15 PM 83.5 °F 13.1 °F 7% 29.84 in 7.0 mi West 32.2 mph 40.3 mph N/A   Clear
4:35 PM 83.5 °F 13.3 °F 7% 29.84 in 5.0 mi West 35.7 mph 43.7 mph N/A   Haze
4:55 PM 82.8 °F 14.2 °F 8% 29.85 in 10.0 mi West 29.9 mph 40.3 mph N/A   Clear
5:15 PM 82.4 °F 12.7 °F 7% 29.84 in 7.0 mi West 32.2 mph 40.3 mph N/A   Clear
5:35 PM 80.6 °F 13.1 °F 8% 29.86 in 7.0 mi West 27.6 mph 41.4 mph N/A   Clear
5:55 PM 80.4 °F 12.7 °F 8% 29.86 in 7.0 mi West 26.5 mph 42.6 mph N/A   Clear
6:15 PM 81.0 °F 13.3 °F 8% 29.86 in 10.0 mi West 29.9 mph 38.0 mph N/A   Clear
6:35 PM 80.8 °F 13.3 °F 8% 29.87 in 10.0 mi West 29.9 mph 35.7 mph N/A   Clear
6:55 PM 79.7 °F 14.0 °F 8% 29.88 in 10.0 mi West 21.9 mph 35.7 mph N/A   Clear
7:15 PM 78.4 °F 13.8 °F 9% 29.88 in 10.0 mi WNW 21.9 mph 33.4 mph N/A   Clear
7:35 PM 77.0 °F 14.0 °F 9% 29.90 in 10.0 mi West 21.9 mph 27.6 mph N/A   Clear
7:55 PM 75.7 °F 14.0 °F 10% 29.90 in 10.0 mi WNW 16.1 mph 26.5 mph N/A   Clear
8:15 PM 74.5 °F 14.7 °F 10% 29.91 in 10.0 mi West 13.8 mph 19.6 mph N/A   Clear
8:35 PM 73.4 °F 14.7 °F 11% 29.92 in 10.0 mi West 11.5 mph - N/A   Clear
8:55 PM 73.4 °F 13.6 °F 10% 29.93 in 10.0 mi West 16.1 mph 20.7 mph N/A   Clear
9:15 PM 71.6 °F 13.1 °F 11% 29.94 in 10.0 mi West 12.7 mph - N/A   Clear
9:35 PM 71.1 °F 13.5 °F 11% 29.94 in 10.0 mi West 15.0 mph - N/A   Clear
9:55 PM 70.2 °F 13.3 °F 11% 29.95 in 10.0 mi WSW 12.7 mph - N/A   Clear
10:15 PM 66.4 °F 12.4 °F 12% 29.98 in 10.0 mi NW 8.1 mph - N/A   Clear
10:35 PM 66.9 °F 18.0 °F 15% 29.99 in 10.0 mi NNW 9.2 mph - N/A   Clear
10:55 PM 62.2 °F 18.5 °F 18% 30.02 in 7.0 mi South 4.6 mph - N/A   Scattered Clouds
11:15 PM 59.4 °F 22.5 °F 24% 30.02 in 7.0 mi SSW 8.1 mph - N/A   Scattered Clouds
11:35 PM 58.1 °F 23.2 °F 26% 30.04 in 7.0 mi South 6.9 mph - N/A   Mostly Cloudy
11:55 PM 57.0 °F 23.5 °F 27% 30.05 in 7.0 mi South 6.9 mph - N/A   Overcast